Showing default

3CAT-4, 60236

Orbit data source: Space-Track

3CAT-4, 60236 is a payload satellite owned by UPC (ES) in LEO that was launched on Tue, 09 Jul 2024 UTC via an ARIANE 62 launch vehicle from the French Guiana (FRGUI). Payload-class satellites include a variety of spacecraft equipped with specific instruments for various scientific and technological missions. These include communications satellites like Starlink; space stations such as the ISS; scientific satellites like the Hubble; Earth observation satellites from companies like Planet Labs, Umbra, and HawkEye 360; GPS; miniature CubeSats for education and research; and military/defense satellites.

Loading next visibility...
Identifier
60236, 2024-128B
Orbit
LEO
Last TLE update
13 hours ago
Origin
Manufacturer
UPC
Mission
Non-operational Amateur Technology
Bus & Motor
CUBESAT 1U, Unknown motor
Mass
1 kg wet, 1 kg dry
Launch date (UTC)
2024-07-09 (1 year ago)
Launch vehicle
ARIANE 62
Launch site
French Guiana (FRGUI)
Object type
Payload
Rocket body
Debris
Shape & HBR
Box + 1 Rod, 0.5 m
Radar Cross Section
0.015 m², Small (<0.1 m²)

Expand to show TLE details & history

TLE from 13 hours ago
0 3CAT-4
1 60236U 24128B   25181.88771436  .00001373  00000-0  12254-3 0  9996
2 60236  61.9926   7.9209 0054842  62.5157 298.1492 15.00212326 53362
Epoch: 2025-06-30T21:18Z
TLE epoch observation values (Epoch: 2025-06-30T21:18:18.52Z)
Latitude
-0.0001°
Longitude
129.15261°
Altitude
550.205 km
Speed
7.597 km/s
True Right ascension
00h 31m 41s
True Declination
0° 00' 00"
Sunlit
Object was in daylight at epoch
Visualization orbit readout
Latitude
-1.72458°
Longitude
126.38982°
Altitude
551.706 km
Speed
7.596 km/s
Apparent Right ascension
03h 19m 20s
Apparent Declination
-44° 12' 10"
Sunlit
Object is in daylight
Visualization observer readout
Local Sidereal Time
21:44:01
Azimuth
129.34° SE
Elevation
-22.847°
Doppler factor
1
Orbital elements
Apogee altitude
603.251 km
Perigee altitude
527.094 km
Semi-major axis
6,943.309 km
Eccentricity
0.00548
Inclination
61.9926°
RAAN
7.9209°
Arg. of periapsis
62.5157°
True anomaly
Unknown
Mean anomaly
298.1492°
Eccentric anomaly
Unknown
Mean motion
3.7514 °/min
Orbital period
95.96 mins
BSTAR
0.00012254
Loading maneuver chart data...
Loading SW <> Apogee altitude chart data...
Loading historical data...
Loading historical data...
Loading historical data...
Loading historical data...
Loading historical data...
Loading historical data...
Loading historical data...

3CAT-4 Visibility forecast

Observer location: undefined°, undefined°

Span
Click to sort rows by Start time (UTC) header in descending order
Start Az.
Max El. time (UTC)
Max El. Az.
Max El.
End time (UTC)
End Az.
5 mins2025-07-01 13:26:37.912Z156.411° SSE2025-07-01 13:28:37.912Z120.778° SE19.266°2025-07-01 13:31:37.912Z69.035° E
5 mins2025-07-01 15:05:37.912Z259.847° W2025-07-01 15:07:37.912Z311.595° NW29.991°2025-07-01 15:10:37.912Z15.106° NNE
5 mins2025-07-01 21:49:37.912Z9.403° NNE2025-07-01 21:51:37.912Z54.024° ENE22.404°2025-07-01 21:54:37.912Z100.58° ESE
5 mins2025-07-01 23:28:37.912Z285.089° WNW2025-07-01 23:30:37.912Z229.957° WSW28.939°2025-07-01 23:33:37.912Z178.329° S
|